sat.trackr.live / text

‹ back to catalog

UNKNOWN

NORAD 81123

UNKNOWN UNKNOWN UNKNOWN

§ Identity

Operator
Country
Launch date
Launch site
Launch vehicle
Mass (kg)
RCS (m²)

External: N2YO · Heavens-Above

§ Orbital elements

Epoch: 2026-05-24T00:31:00.969600Z

Period
104.20 min
Inclination
99.9649°
Eccentricity
0.0002594
Mean motion
13.81981866 rev/d
Perigee alt
955.0 km
Apogee alt
958.8 km
Semi-major
7,335.0 km
B*
8.8406e-4
RAAN
239.6819°
Arg perigee
44.2622°
Mean anomaly
315.8736°
Rev number
62,869

§ Raw data

UNKNOWN1 81123U          26144.02153900  .00000900  00000+0  88406-3 0  99992 81123  99.9649 239.6819 0002594  44.2622 315.8736 13.81981866628696

JSON: /api/v1/satellites/81123 · /tle

For live sub-satellite position, see the globe view (requires WebGL).

§ Visibility from observer

Set your observer location to see the next 7 days of passes ≥ 10°. The values pass through the URL so the page stays shareable.

No JS? Fill the form by hand. The geolocation button needs JavaScript.